[Iaude] MPEC J124: 2013 UP44 [a=46.24,e=0.14,i=2.9,H=8.6]

mpec at marsden.cfa.harvard.edu mpec at marsden.cfa.harvard.edu
Sun May 9 23:51:14 EDT 2021


M.P.E.C. 2021-J124                                 Issued 2021 May 10, 03:49 UT

     The Minor Planet Electronic Circulars contain information on unusual
         minor planets and routine data on comets.  They are published
    on behalf of Division F of the International Astronomical Union by the
          Minor Planet Center, Smithsonian Astrophysical Observatory,
                          Cambridge, MA 02138, U.S.A.

             Prepared using the Tamkin Foundation Computer Network

                              MPC at CFA.HARVARD.EDU
            URL https://www.minorplanetcenter.net/    ISSN 1523-6714

                                   2013 UP44                                    


Observations:
     K13U44P RC2013 08 02.53574 01 08 52.731+04 18 52.55         24.7 rVEJ124568
     K13U44P RC2013 08 02.57845 01 08 52.689+04 18 52.25         24.9 rVEJ124568
     K13U44P RC2013 08 30.45291 01 07 50.759+04 10 41.35         24.8 rVEJ124568
     K13U44P RC2013 08 30.45765 01 07 50.753+04 10 40.99               VEJ124568
     K13U44P RC2013 08 31.45558 01 07 47.485+04 10 17.97         24.8 rVEJ124568
     K13U44P RC2013 08 31.52122 01 07 47.267+04 10 16.31         24.2 rVEJ124568
     K13U44P RC2013 10 06.41689 01 05 19.556+03 53 55.55         24.3 rVEJ124568
     K13U44P RC2013 10 09.54662 01 05 05.077+03 52 24.93               VEJ124568
     K13U44P*RC2013 10 31.25836 01 03 27.236+03 42 32.73         24.3 rVEJ124568
     K13U44P RC2013 10 31.30131 01 03 27.054+03 42 31.70         23.9 rVEJ124568
     K13U44P RC2013 10 31.34404 01 03 26.861+03 42 30.64         24.1 rVEJ124568
     K13U44P RC2013 11 01.28510 01 03 22.880+03 42 07.36         24.9 rVEJ124568
     K13U44P RC2013 11 01.41360 01 03 22.322+03 42 04.23         24.4 rVEJ124568
     K13U44P RC2013 11 05.46270 01 03 05.573+03 40 27.36         24.4 rVEJ124568
     K13U44P RC2013 12 06.22106 01 01 28.816+03 31 56.15         24.7 rVEJ124568
     K13U44P RC2014 06 27.60559 01 14 02.312+04 51 42.09         24.7 rVEJ124568
     K13U44P RC2014 06 28.61065 01 14 04.499+04 51 50.80         24.6 rVEJ124568
     K13U44P RC2014 07 24.56867 01 14 30.274+04 52 25.83         24.9 rVEJ124568
     K13U44P RC2014 07 27.59948 01 14 29.344+04 52 06.01         24.0 rVEJ124568
     K13U44P RC2014 08 22.55650 01 13 49.440+04 46 11.93         24.5 rVEJ124568
     K13U44P RC2014 08 28.41844 01 13 33.105+04 44 11.14         24.8 rVEJ124568
     K13U44P RC2014 10 23.36404 01 09 39.967+04 19 02.04         24.7 rVEJ124568
     K13U44P RC2014 10 26.46093 01 09 26.004+04 17 39.11         25.0 rVEJ124568
     K13U44P RC2014 10 27.40273 01 09 21.827+04 17 14.58         24.6 rVEJ124568
     K13U44P RC2014 11 24.28276 01 07 34.209+04 07 12.84         25.2 rVEJ124568
     K13U44P RC2014 11 25.30908 01 07 31.083+04 06 56.86         24.3 rVEJ124568

Observer details:
568 Mauna Kea.  Observer .  Measurers E. J. Ashton, J. J. Kavelaars, B. J.
    Gladman.  3.6-m Canada-France-Hawaii Telescope + CCD.

Orbital elements:
2013 UP44                                                                       
Epoch 2021 July 5.0 TT = JDT 2459400.5                  Alexandersen              
M  33.78495              (2000.0)            P               Q                  
n   0.00313419     Peri.  216.53287     +0.95810105     +0.28348626             
a  46.2436688      Node   126.94831     -0.24916268     +0.89541409             
e   0.1408207      Incl.    2.93801     -0.14128104     +0.34332076             
P 314              H    8.62          G   0.15           U   6                  
Residuals in seconds of arc
130802 568  0.2-  0.1-    131031 568  0.0   0.0     140727 568  0.1-  0.2-
130802 568  0.0   0.1+    131031 568  0.1-  0.0     140822 568  0.3+  0.1+
130830 568  0.0   0.2+    131101 568  0.0   0.0     140828 568  0.0   0.1+
130830 568  0.2+  0.1-    131101 568  0.1-  0.0     141023 568  0.2+  0.2+
130831 568  0.0   0.2+    131105 568  0.0   0.1-    141026 568  0.3-  0.1-
130831 568  0.0   0.0     131206 568  0.2+  0.0     141027 568  0.1-  0.1+
131006 568  0.2+  0.0     140627 568  0.1-  0.1-    141124 568  0.1-  0.0
131009 568  0.1-  0.0     140628 568  0.1-  0.2-    141125 568  0.1+  0.1+
131031 568  0.1-  0.1-    140724 568  0.1+  0.0

Ephemeris:
2013 UP44                a,e,i = 46.24, 0.14, 3                  q = 39.7316
Date    TT    R. A. (2000) Decl.     Delta      r    Elong.  Phase     V
2021 04 10    01 45 01.2 +07 49 44  42.1429 41.1502     7.7     0.2    24.9
...
2021 04 25    01 46 33.1 +07 58 24  42.1507 41.1540     7.7     0.2    24.9
...
2021 05 03    01 47 21.6 +08 02 51  42.1290 41.1560    15.0     0.4    24.9
...
2021 05 09    01 47 57.2 +08 06 03  42.1013 41.1575    20.5     0.5    24.9
2021 05 10    01 48 03.0 +08 06 35  42.0957 41.1577    21.5     0.5    24.9
2021 05 11    01 48 08.9 +08 07 06  42.0899 41.1580    22.4     0.5    24.9
...
2021 05 17    01 48 43.1 +08 10 07  42.0496 41.1595    28.0     0.7    24.9
...
2021 05 25    01 49 26.4 +08 13 51  41.9820 41.1615    35.5     0.8    24.9
...
2021 06 09    01 50 39.2 +08 19 53  41.8173 41.1652    49.5     1.1    25.0

M. P. C. Staff               (C) Copyright 2021 MPC           M.P.E.C. 2021-J124




More information about the Iaude mailing list